Clearfield, PA

4:07 PM EDT on March 29, 2017 (GMT -0400)
Clearfield-Lawrence

Weather History for KFIG - January, 2013

Change the Weather History Date:

Saturday, January 19, 2013

  Actual Average (KDUJ) Record (KDUJ)
Temperature  
Mean Temperature 34 °F -  
Max Temperature 48 °F 29 °F 54 °F (1996)
Min Temperature 21 °F 15 °F -26 °F (1994)
Degree Days  
Heating Degree Days 30    
Moisture  
Dew Point 16 °F    
Average Humidity 41    
Maximum Humidity 65    
Minimum Humidity 28    
Precipitation  
Precipitation 0.00 in - - ()
Sea Level Pressure  
Sea Level Pressure 30.05 in    
Wind  
Wind Speed 8 mph (SSW)    
Max Wind Speed 20 mph    
Max Gust Speed 31 mph    
Visibility 10 miles    
Events      
Averages and records for this station are not official NWS values.
T = Trace of Precipitation, MM = Missing Value Source: NWS Daily Summary

Daily Weather History Graph

Daily Weather History Graph

Search for Another Location

Airport or City:

Trip Planner

Search our weather history database for the weather conditions in past years. The results will help you decide how hot, cold, wet, or windy it might be!

Date:

Astronomy

Jan. 19, 2013 Rise Set
Actual Time 7:34 AM EST 5:14 PM EST
Civil Twilight 7:04 AM EST 5:45 PM EST
Nautical Twilight 6:30 AM EST 6:18 PM EST
Astronomical Twilight 5:57 AM EST 6:51 PM EST
Moon 11:40 AM EST (1/19) 1:06 AM EST (1/19)
Length of Visible Light 10h 40m
Length of Day
9h 40m
First Quarter, 57% of the Moon is Illuminated
Jan 19
First Quarter
Jan 26
Full
Feb 3
Last Quarter
Feb 10
New
Feb 17
First Quarter

Hourly Weather History & Observations

Time (EST) Temp. Windchill Dew Point Humidity Pressure Visibility Wind Dir Wind Speed Gust Speed Precip Events Conditions
12:54 AM 21.9 °F 17.2 °F 10.9 °F 63% 30.26 in 10.0 mi SSW 3.5 mph - N/A   Overcast
1:54 AM 24.1 °F 19.7 °F 10.9 °F 57% 30.24 in 10.0 mi WSW 3.5 mph - N/A   Overcast
2:54 AM 23.0 °F 18.4 °F 12.9 °F 65% 30.23 in 10.0 mi South 3.5 mph - N/A   Overcast
3:54 AM 26.1 °F 19.4 °F 10.0 °F 51% 30.20 in 10.0 mi South 5.8 mph - N/A   Scattered Clouds
4:54 AM 26.1 °F 20.5 °F 12.0 °F 55% 30.19 in 10.0 mi Variable 4.6 mph - N/A   Clear
5:54 AM 28.9 °F 21.9 °F 10.0 °F 45% 30.16 in 10.0 mi SSW 6.9 mph - N/A   Clear
7:54 AM 34.0 °F 26.6 °F 12.9 °F 42% 30.15 in 10.0 mi SSW 9.2 mph - N/A   Clear
8:54 AM 36.0 °F 28.5 °F 14.0 °F 41% 30.16 in 10.0 mi SSW 10.4 mph - N/A   Clear
9:54 AM 39.9 °F 32.1 °F 15.1 °F 36% 30.16 in 10.0 mi SSW 13.8 mph 23.0 mph N/A   Clear
10:54 AM 42.1 °F 34.5 °F 16.0 °F 35% 30.14 in 10.0 mi SW 15.0 mph 24.2 mph N/A   Clear
11:54 AM 43.0 °F 35.7 °F 17.1 °F 35% 30.10 in 10.0 mi SSW 15.0 mph 27.6 mph N/A   Clear
12:54 PM 45.0 °F 38.5 °F 18.0 °F 34% 30.06 in 10.0 mi SW 13.8 mph 24.2 mph N/A   Clear
1:54 PM 46.9 °F - 19.0 °F 33% 30.03 in 10.0 mi SSW 17.3 mph 31.1 mph N/A   Clear
2:54 PM 48.0 °F - 17.1 °F 29% 30.00 in 10.0 mi SSW 19.6 mph 26.5 mph N/A   Clear
3:54 PM 48.0 °F - 16.0 °F 28% 29.98 in 10.0 mi SW 12.7 mph 19.6 mph N/A   Clear
4:54 PM 46.9 °F - 16.0 °F 29% 29.96 in 10.0 mi SSW 10.4 mph 18.4 mph N/A   Clear
5:54 PM 45.0 °F 40.1 °F 17.1 °F 33% 29.94 in 10.0 mi SSW 9.2 mph - N/A   Clear
6:54 PM 44.1 °F 39.0 °F 18.0 °F 35% 29.92 in 10.0 mi SSW 9.2 mph - N/A   Partly Cloudy
7:54 PM 44.1 °F 39.5 °F 18.0 °F 35% 29.90 in 10.0 mi SSW 8.1 mph - N/A   Overcast
8:54 PM 43.0 °F 36.8 °F 19.0 °F 38% 29.86 in 10.0 mi SSW 11.5 mph - N/A   Clear
9:54 PM 42.1 °F 37.1 °F 19.9 °F 41% 29.85 in 10.0 mi SSW 8.1 mph - N/A   Clear
10:54 PM 43.0 °F 37.2 °F 19.0 °F 38% 29.82 in 10.0 mi SSW 10.4 mph 19.6 mph N/A   Partly Cloudy
11:54 PM 44.1 °F 38.6 °F 19.0 °F 37% 29.79 in 10.0 mi SSW 10.4 mph 23.0 mph N/A   Clear